Location: Hall+in+Tirol
(47.2830°N, 11.5170°E)
Time: 09:44:35
(UTC+02:00)

Gurwin Techsat 1B - Visible Passes

Search period start: 31 May 2016 00:00
Search period end: 10 June 2016 00:00
Orbit: 811 x 815 km, 98.6° (Epoch: 30 May)

Date Brightness Start Highest point End Pass type
(mag) Time Alt. Az. Time Alt. Az. Time Alt. Az.
31 May 10.6 02:21:08 10° NE 02:25:01 20° E 02:28:53 10° SE visible
31 May 8.8 04:00:09 10° N 04:05:25 63° WNW 04:10:15 12° SSW visible
01 Jun 11.0 01:59:35 10° ENE 02:01:56 13° E 02:04:16 10° ESE visible
01 Jun 8.6 03:37:18 10° NNE 03:42:40 86° ESE 03:47:13 15° SSW visible
02 Jun 9.1 03:14:35 10° NNE 03:19:51 57° E 03:24:11 15° S visible
03 Jun 9.8 02:52:02 10° NNE 02:56:57 37° E 03:01:09 13° SSE visible
03 Jun 9.5 04:32:04 10° N 04:36:52 35° WNW 04:41:39 10° SW visible
04 Jun 10.4 02:29:42 10° NE 02:33:58 24° E 02:38:06 10° SE visible
04 Jun 9.0 04:09:03 10° N 04:14:13 53° WNW 04:19:19 10° SW visible
05 Jun 10.9 02:07:48 10° NE 02:10:55 15° E 02:14:01 10° SE visible
05 Jun 8.6 03:46:10 10° NNE 03:51:31 80° WNW 03:56:16 13° SSW visible
06 Jun 8.9 03:23:24 10° NNE 03:28:43 67° ESE 03:33:14 14° S visible
07 Jun 9.5 03:00:46 10° NNE 03:05:51 43° E 03:10:11 14° SSE visible
08 Jun 10.1 02:38:20 10° NE 02:42:54 28° E 02:47:08 11° SSE visible
08 Jun 9.2 04:17:58 10° N 04:23:02 45° WNW 04:28:04 10° SW visible
09 Jun 10.7 02:16:13 10° NE 02:19:53 19° E 02:23:31 10° SE visible
09 Jun 8.7 03:55:03 10° N 04:00:21 68° WNW 04:05:18 12° SSW visible
